QZS-2 (QZSS/PRN 194)

Last updated on Thu Jul 03 2025 00:03:25 GMT+0000 (Coordinated Universal Time)

1 42738U 17028A 25183.47011836 -.00000164 00000+0 00000+0 0 9991 2 42738 39.9677 248.2649 0758624 269.3789 74.2498 1.00280388 4118
UTC large
Height (km)
Speed (km/s)
/
Latitude / Longitude
Inclination (degrees)
Orbital Period (minutes)
Azimuth
Elevation
Range (km)
Doppler Factor

Next 0 passes for location: London (51.5072 / 0.1276)

Sorry there are no passes over London.